Terminal Aerodrome Forecast
Issued by NWS Cleveland, OH

Home | Current Version | Previous Version | Graphics & Text | Print | Product List | Glossary On
Versions: 1 2 3 4 5 6 7 8 9 10 11 12 13 14 15 16 17 18
594
FTUS41 KCLE 230317 AAA
TAFERI
TAF AMD
KERI 230317Z 2303/2324 27008KT 6SM BR SCT004 OVC015
     FM231100 28005KT P6SM SKC
     FM231600 28007KT P6SM FEW200=

USA.gov is the U.S. government's official web portal to all federal, state and local government web resources and services.